Location: Black Skies Observatory
(44.7549°N, 79.7179°W)
Time: 14:30:19
(UTC-05:00)

Envisat - Pass Details

Date: 31 October 2020
Orbit: 764 x 766 km, 98.1° (Epoch: 01 December)

Event Time Altitude Azimuth Distance (km) Brightness Sun altitude
Rises 18:27:03 0° 169° (SSE) 3,219 6.3 -4.0°
Reaches altitude 10° 18:29:21 10° 170° (S) 2,297 5.6 -4.4°
Maximum altitude 18:34:25 78° 256° (WSW) 787 3.3 -5.3°
Drops below altitude 10° 18:39:31 10° 344° (NNW) 2,313 5.5 -6.2°
Sets 18:41:51 0° 346° (NNW) 3,244 6.3 -6.6°
